User: anonymous   Login
Location: Plymouth
(43.7570°N, 71.6890°W)
Time: 09:29:33
(UTC-04:00)
Language:

Meteor 1-28 Rocket - Orbit

View from above orbital plane
View from above orbital plane
View from above satellite
View from above satellite

Ground track
Ground track

The orbit data is extracted from the following two-line orbital elements,

1 10114U 77057B   17227.85347944  .00000242  00000-0  15504-4 0  9993
2 10114  97.2033  47.1574 0015677 108.6312 251.6626 15.16767853192591
Epoch (UTC): 15 August 2017 20:29:00
Eccentricity: 0.0015677
inclination: 97.2033°
perigee height: 505 km
apogee height: 526 km
right ascension of ascending node: 47.1574°
argument of perigee: 108.6312°
revolutions per day: 15.16767853
mean anomaly at epoch: 251.6626°
orbit number at epoch: 19259

The dashed part of the orbit path shows where the satellite is in the earth's shadow,  

DLR